User: anonymous   Login
Location: Deer Lake
(49.1830°N, 57.4330°W)
Time: 23:35:26
(UTC-02:-30)
Language:

Cosmos 1707 - Orbit

View from above orbital plane
View from above orbital plane
View from above satellite
View from above satellite

Ground track
Ground track

The orbit data is extracted from the following two-line orbital elements,

1 16326U 85113A   15117.46899352  .00004331  00000-0  25765-3 0  9996
2 16326 082.5108 255.1391 0013186 115.5710 244.6885 15.10939378599195
Epoch (UTC): 27 April 2015 11:15:21
Eccentricity: 0.0013186
inclination: 82.5108°
perigee height: 524 km
apogee height: 542 km
right ascension of ascending node: 255.1391°
argument of perigee: 115.5710°
revolutions per day: 15.10939378
mean anomaly at epoch: 244.6885°
orbit number at epoch: 59919

The dashed part of the orbit path shows where the satellite is in the earth's shadow,  

DLR